Time,TemperatureF,DewpointF,PressureIn,WindDirection,WindDirectionDegrees,WindSpeedMPH,WindSpeedGustMPH,Humidity,HourlyPrecipIn,Conditions,Clouds,dailyrainin,SolarRadiationWatts/m^2,SoftwareType,DateUTC
2013-04-09 00:13:00,57.0,56.4,29.17,WSW,247,0.0,0.0,98,0.00,,---,0.00,0.00,VWS V14.01,2013-04-09 04:13:00,
2013-04-09 00:18:00,57.0,55.9,29.17,WSW,247,0.0,0.0,96,0.00,,---,0.00,0.00,VWS V14.01,2013-04-09 04:18:00,
2013-04-09 00:23:00,57.0,56.7,29.17,WSW,247,0.0,0.0,99,0.00,,---,0.00,0.00,VWS V14.01,2013-04-09 04:23:00,
2013-04-09 00:28:00,57.0,57.0,29.17,WSW,247,0.0,0.0,100,0.00,,---,0.00,0.00,VWS V14.01,2013-04-09 04:28:00,
2013-04-09 00:33:00,58.0,58.0,29.17,WSW,247,0.0,0.0,100,0.00,,---,0.00,0.00,VWS V14.01,2013-04-09 04:33:00,
2013-04-09 00:38:00,58.0,58.0,29.18,WSW,247,0.0,0.0,100,0.00,,---,0.00,0.00,VWS V14.01,2013-04-09 04:38:00,
2013-04-09 00:43:00,58.0,57.7,29.18,WSW,247,0.0,0.0,99,0.00,,---,0.00,0.00,VWS V14.01,2013-04-09 04:43:00,
2013-04-09 00:48:00,58.0,57.4,29.17,WSW,247,0.0,0.0,98,0.00,,---,0.00,0.00,VWS V14.01,2013-04-09 04:48:00,
2013-04-09 00:53:00,57.0,56.4,29.17,WSW,247,0.0,0.0,98,0.00,,---,0.00,0.00,VWS V14.01,2013-04-09 04:53:00,
2013-04-09 00:58:00,57.0,57.0,29.17,WSW,247,0.0,0.0,100,0.00,,---,0.00,0.00,VWS V14.01,2013-04-09 04:58:00,
2013-04-09 01:03:00,57.0,57.0,29.17,WSW,247,0.0,0.0,100,0.00,,---,0.00,0.00,VWS V14.01,2013-04-09 05:03:00,
2013-04-09 01:09:00,57.0,57.0,29.16,WSW,247,0.0,0.0,100,0.00,,---,0.00,0.00,VWS V14.01,2013-04-09 05:09:00,
2013-04-09 01:14:00,57.0,57.0,29.16,WSW,247,0.0,0.0,100,0.00,,---,0.00,0.00,VWS V14.01,2013-04-09 05:14:00,
2013-04-09 01:19:00,56.0,56.0,29.17,WSW,247,0.0,0.0,100,0.00,,---,0.00,0.00,VWS V14.01,2013-04-09 05:19:00,
2013-04-09 01:24:00,56.0,56.0,29.17,WSW,247,0.0,0.0,100,0.00,,---,0.00,0.00,VWS V14.01,2013-04-09 05:24:00,
2013-04-09 01:29:00,57.0,57.0,29.17,WSW,247,0.0,0.0,100,0.00,,---,0.00,0.00,VWS V14.01,2013-04-09 05:29:00,
2013-04-09 01:34:00,57.0,57.0,29.17,WSW,247,0.0,0.0,100,0.00,,---,0.00,0.00,VWS V14.01,2013-04-09 05:34:00,
2013-04-09 01:39:00,57.0,57.0,29.18,WSW,247,0.0,0.0,100,0.00,,---,0.00,0.00,VWS V14.01,2013-04-09 05:39:00,
2013-04-09 01:44:00,57.0,57.0,29.18,WSW,247,0.0,0.0,100,0.00,,---,0.00,0.00,VWS V14.01,2013-04-09 05:44:00,
2013-04-09 01:49:00,57.0,57.0,29.18,WSW,247,0.0,0.0,100,0.00,,---,0.00,0.00,VWS V14.01,2013-04-09 05:49:00,
2013-04-09 01:54:00,56.0,56.0,29.18,WSW,247,0.0,0.0,100,0.00,,---,0.00,0.00,VWS V14.01,2013-04-09 05:54:00,
2013-04-09 01:59:00,56.0,56.0,29.19,WSW,247,0.0,0.0,100,0.00,,---,0.00,0.00,VWS V14.01,2013-04-09 05:59:00,
2013-04-09 02:04:00,56.0,56.0,29.19,WSW,247,0.0,0.0,100,0.00,,---,0.00,0.00,VWS V14.01,2013-04-09 06:04:00,
2013-04-09 02:09:00,56.0,56.0,29.19,WSW,247,0.0,0.0,100,0.00,,---,0.00,0.00,VWS V14.01,2013-04-09 06:09:00,
2013-04-09 02:14:00,56.0,56.0,29.19,WSW,247,0.0,0.0,100,0.00,,---,0.00,0.00,VWS V14.01,2013-04-09 06:14:00,
2013-04-09 02:19:00,56.0,56.0,29.19,WSW,247,0.0,0.0,100,0.00,,---,0.00,0.00,VWS V14.01,2013-04-09 06:19:00,
2013-04-09 02:24:00,56.0,56.0,29.19,WSW,247,0.0,0.0,100,0.00,,---,0.00,0.00,VWS V14.01,2013-04-09 06:24:00,
2013-04-09 02:29:00,56.0,56.0,29.19,WSW,247,0.0,0.0,100,0.00,,---,0.00,0.00,VWS V14.01,2013-04-09 06:29:00,
2013-04-09 02:34:00,56.0,56.0,29.19,WSW,247,0.0,0.0,100,0.00,,---,0.00,0.00,VWS V14.01,2013-04-09 06:34:00,
2013-04-09 02:39:00,56.0,56.0,29.19,WSW,247,0.0,0.0,100,0.00,,---,0.00,0.00,VWS V14.01,2013-04-09 06:39:00,
2013-04-09 02:44:00,56.0,56.0,29.19,WSW,247,0.0,0.0,100,0.00,,---,0.00,0.00,VWS V14.01,2013-04-09 06:44:00,
2013-04-09 02:49:00,55.0,55.0,29.19,WSW,247,0.0,0.0,100,0.00,,---,0.00,0.00,VWS V14.01,2013-04-09 06:49:00,
2013-04-09 02:54:00,55.0,55.0,29.19,WSW,247,0.0,0.0,100,0.00,,---,0.00,0.00,VWS V14.01,2013-04-09 06:54:00,
2013-04-09 02:59:00,55.0,55.0,29.18,WSW,247,0.0,0.0,100,0.00,,---,0.00,0.00,VWS V14.01,2013-04-09 06:59:00,
2013-04-09 03:04:00,55.0,55.0,29.18,WSW,247,0.0,0.0,100,0.00,,---,0.00,0.00,VWS V14.01,2013-04-09 07:04:00,
2013-04-09 03:09:00,54.0,54.0,29.17,WSW,247,0.0,0.0,100,0.00,,---,0.00,0.00,VWS V14.01,2013-04-09 07:09:00,
2013-04-09 03:14:00,54.0,54.0,29.17,WSW,247,0.0,0.0,100,0.00,,---,0.00,0.00,VWS V14.01,2013-04-09 07:14:00,
2013-04-09 03:19:00,54.0,54.0,29.19,WSW,247,0.0,0.0,100,0.00,,---,0.00,0.00,VWS V14.01,2013-04-09 07:19:00,
2013-04-09 03:24:00,54.0,54.0,29.19,WSW,247,0.0,0.0,100,0.00,,---,0.00,0.00,VWS V14.01,2013-04-09 07:24:00,
2013-04-09 03:29:00,54.0,54.0,29.18,WSW,247,0.0,0.0,100,0.00,,---,0.00,0.00,VWS V14.01,2013-04-09 07:29:00,
2013-04-09 03:34:00,54.0,54.0,29.18,WSW,247,0.0,0.0,100,0.00,,---,0.00,0.00,VWS V14.01,2013-04-09 07:34:00,
2013-04-09 03:39:00,53.0,53.0,29.17,WSW,247,0.0,0.0,100,0.00,,---,0.00,0.00,VWS V14.01,2013-04-09 07:39:00,
2013-04-09 03:45:00,53.0,53.0,29.17,WSW,247,0.0,0.0,100,0.00,,---,0.00,0.00,VWS V14.01,2013-04-09 07:45:00,
2013-04-09 03:50:00,53.0,53.0,29.17,WSW,247,0.0,0.0,100,0.00,,---,0.00,0.00,VWS V14.01,2013-04-09 07:50:00,
2013-04-09 03:55:00,53.0,53.0,29.17,WSW,247,0.0,0.0,100,0.00,,---,0.00,0.00,VWS V14.01,2013-04-09 07:55:00,
2013-04-09 04:00:00,54.0,54.0,29.18,East,90,0.0,0.0,100,0.00,,---,0.00,0.00,VWS V14.01,2013-04-09 08:00:00,
2013-04-09 04:05:00,54.0,54.0,29.18,East,90,0.0,0.0,100,0.00,,---,0.00,0.00,VWS V14.01,2013-04-09 08:05:00,
2013-04-09 04:10:00,54.0,54.0,29.17,SSE,157,0.0,3.0,100,0.00,,---,0.00,0.00,VWS V14.01,2013-04-09 08:10:00,
2013-04-09 04:15:00,54.0,54.0,29.17,SSE,157,0.0,0.0,100,0.00,,---,0.00,0.00,VWS V14.01,2013-04-09 08:15:00,
2013-04-09 04:20:00,55.0,55.0,29.17,SE,135,0.0,0.0,100,0.00,,---,0.00,0.00,VWS V14.01,2013-04-09 08:20:00,
2013-04-09 04:25:00,55.0,55.0,29.17,SE,135,0.0,0.0,100,0.00,,---,0.00,0.00,VWS V14.01,2013-04-09 08:25:00,
2013-04-09 04:30:00,55.0,55.0,29.17,SE,135,0.0,0.0,100,0.00,,---,0.00,0.00,VWS V14.01,2013-04-09 08:30:00,
2013-04-09 04:35:00,55.0,55.0,29.17,SE,135,0.0,0.0,100,0.00,,---,0.00,0.00,VWS V14.01,2013-04-09 08:35:00,
2013-04-09 04:40:00,55.0,55.0,29.17,SE,135,0.0,0.0,100,0.00,,---,0.00,0.00,VWS V14.01,2013-04-09 08:40:00,
2013-04-09 04:45:00,55.0,55.0,29.17,SE,135,0.0,0.0,100,0.00,,---,0.00,0.00,VWS V14.01,2013-04-09 08:45:00,
2013-04-09 04:50:00,54.0,54.0,29.17,SE,135,0.0,0.0,100,0.00,,---,0.00,0.00,VWS V14.01,2013-04-09 08:50:00,
2013-04-09 04:55:00,54.0,54.0,29.17,SE,135,0.0,0.0,100,0.00,,---,0.00,0.00,VWS V14.01,2013-04-09 08:55:00,
2013-04-09 05:00:00,54.0,54.0,29.18,SE,135,0.0,0.0,100,0.00,,---,0.00,0.00,VWS V14.01,2013-04-09 09:00:00,
2013-04-09 05:05:00,54.0,54.0,29.18,SE,135,0.0,0.0,100,0.00,,---,0.00,0.00,VWS V14.01,2013-04-09 09:05:00,
2013-04-09 05:10:00,54.0,54.0,29.18,SE,135,0.0,0.0,100,0.00,,---,0.00,0.00,VWS V14.01,2013-04-09 09:10:00,
2013-04-09 05:16:00,54.0,54.0,29.18,South,180,0.0,0.0,100,0.00,,---,0.00,0.00,VWS V14.01,2013-04-09 09:16:00,
2013-04-09 05:21:00,54.0,54.0,29.17,South,180,0.0,0.0,100,0.00,,---,0.00,0.00,VWS V14.01,2013-04-09 09:21:00,
2013-04-09 05:26:00,54.0,54.0,29.17,SE,135,0.0,0.0,100,0.00,,---,0.00,0.00,VWS V14.01,2013-04-09 09:26:00,
2013-04-09 05:32:00,54.0,54.0,29.18,SE,135,0.0,0.0,100,0.00,,---,0.00,0.00,VWS V14.01,2013-04-09 09:32:00,
2013-04-09 05:37:00,54.0,54.0,29.18,SSE,157,0.0,0.0,100,0.00,,---,0.00,0.00,VWS V14.01,2013-04-09 09:37:00,
2013-04-09 05:42:00,54.0,54.0,29.18,SSE,157,0.0,0.0,100,0.00,,---,0.00,0.00,VWS V14.01,2013-04-09 09:42:00,
2013-04-09 05:47:00,54.0,54.0,29.18,SSE,157,0.0,0.0,100,0.00,,---,0.00,0.00,VWS V14.01,2013-04-09 09:47:00,
2013-04-09 05:52:00,54.0,54.0,29.18,SSE,157,0.0,0.0,100,0.00,,---,0.00,0.00,VWS V14.01,2013-04-09 09:52:00,
2013-04-09 05:57:00,54.0,54.0,29.18,SSE,157,0.0,0.0,100,0.00,,---,0.00,0.00,VWS V14.01,2013-04-09 09:57:00,
2013-04-09 06:02:00,55.0,55.0,29.18,SSE,157,0.0,2.0,100,0.00,,---,0.00,0.00,VWS V14.01,2013-04-09 10:02:00,
2013-04-09 06:07:00,56.0,56.0,29.16,East,90,1.0,2.0,100,0.00,,---,0.00,0.00,VWS V14.01,2013-04-09 10:07:00,
2013-04-09 06:12:00,56.0,56.0,29.16,SE,135,0.0,2.0,100,0.00,,---,0.00,0.00,VWS V14.01,2013-04-09 10:12:00,
2013-04-09 06:17:00,57.0,57.0,29.16,SSE,157,0.0,0.0,100,0.00,,---,0.00,0.00,VWS V14.01,2013-04-09 10:17:00,
2013-04-09 06:22:00,56.0,56.0,29.16,SSE,157,0.0,3.0,100,0.00,,---,0.00,0.00,VWS V14.01,2013-04-09 10:22:00,
2013-04-09 06:27:00,57.0,57.0,29.16,SE,135,1.0,2.0,100,0.00,,---,0.00,0.00,VWS V14.01,2013-04-09 10:27:00,
2013-04-09 06:32:00,57.0,57.0,29.16,SE,135,0.0,0.0,100,0.00,,---,0.00,0.00,VWS V14.01,2013-04-09 10:32:00,
2013-04-09 06:37:00,57.0,57.0,29.16,SE,135,0.0,0.0,100,0.00,,---,0.00,0.00,VWS V14.01,2013-04-09 10:37:00,
2013-04-09 06:43:00,57.0,57.0,29.16,SE,135,0.0,2.0,100,0.00,,---,0.00,0.00,VWS V14.01,2013-04-09 10:43:00,
2013-04-09 06:48:00,57.0,57.0,29.17,SE,135,0.0,1.0,100,0.00,,---,0.00,0.00,VWS V14.01,2013-04-09 10:48:00,
2013-04-09 06:53:00,57.0,57.0,29.17,SE,135,1.0,1.0,100,0.00,,---,0.00,0.00,VWS V14.01,2013-04-09 10:53:00,
2013-04-09 06:58:00,57.0,57.0,29.17,SE,135,0.0,0.0,100,0.00,,---,0.00,0.00,VWS V14.01,2013-04-09 10:58:00,
2013-04-09 07:03:00,56.0,56.0,29.17,ESE,112,0.0,0.0,100,0.00,,---,0.00,0.00,VWS V14.01,2013-04-09 11:03:00,
2013-04-09 07:08:00,56.0,56.0,29.17,SSW,202,0.0,0.0,100,0.00,,---,0.00,0.00,VWS V14.01,2013-04-09 11:08:00,
2013-04-09 07:13:00,56.0,56.0,29.17,South,180,0.0,2.0,100,0.00,,---,0.00,0.00,VWS V14.01,2013-04-09 11:13:00,
2013-04-09 07:18:00,56.0,56.0,29.18,SE,135,0.0,0.0,100,0.00,,---,0.00,0.00,VWS V14.01,2013-04-09 11:18:00,
2013-04-09 07:23:00,56.0,56.0,29.18,SSE,157,0.0,0.0,100,0.00,,---,0.00,0.00,VWS V14.01,2013-04-09 11:23:00,
2013-04-09 07:28:00,56.0,56.0,29.19,SE,135,0.0,0.0,100,0.00,,---,0.00,0.00,VWS V14.01,2013-04-09 11:28:00,
2013-04-09 07:33:00,56.0,56.0,29.19,SE,135,0.0,0.0,100,0.00,,---,0.00,0.00,VWS V14.01,2013-04-09 11:33:00,
2013-04-09 07:38:00,56.0,56.0,29.18,SE,135,0.0,0.0,100,0.00,,---,0.00,0.00,VWS V14.01,2013-04-09 11:38:00,
2013-04-09 07:43:00,56.0,56.0,29.18,ESE,112,0.0,1.0,100,0.00,,---,0.00,0.00,VWS V14.01,2013-04-09 11:43:00,
2013-04-09 07:48:00,57.0,57.0,29.17,ESE,112,0.0,0.0,100,0.00,,---,0.00,0.00,VWS V14.01,2013-04-09 11:48:00,
2013-04-09 07:53:00,57.0,57.0,29.17,SE,135,0.0,0.0,100,0.00,,---,0.00,0.00,VWS V14.01,2013-04-09 11:53:00,
2013-04-09 07:58:00,57.0,57.0,29.18,SE,135,0.0,0.0,100,0.00,,---,0.00,0.00,VWS V14.01,2013-04-09 11:58:00,
2013-04-09 08:03:00,57.0,57.0,29.18,SSE,157,0.0,0.0,100,0.00,,---,0.00,0.00,VWS V14.01,2013-04-09 12:03:00,
2013-04-09 08:08:00,57.0,57.0,29.19,SSW,202,0.0,2.0,100,0.00,,---,0.00,0.00,VWS V14.01,2013-04-09 12:08:00,
2013-04-09 08:13:00,57.0,57.0,29.19,SSE,157,0.0,3.0,100,0.00,,---,0.00,0.00,VWS V14.01,2013-04-09 12:13:00,
2013-04-09 08:18:00,58.0,57.7,29.19,SE,135,1.0,3.0,99,0.00,,---,0.00,0.00,VWS V14.01,2013-04-09 12:18:00,
2013-04-09 08:23:00,58.0,57.4,29.19,SSE,157,1.0,3.0,98,0.00,,---,0.00,0.00,VWS V14.01,2013-04-09 12:23:00,
2013-04-09 08:28:00,58.0,57.2,29.19,SSE,157,0.0,3.0,97,0.00,,---,0.00,0.00,VWS V14.01,2013-04-09 12:28:00,
2013-04-09 08:33:00,58.0,56.9,29.19,South,180,1.0,1.0,96,0.00,,---,0.00,0.00,VWS V14.01,2013-04-09 12:33:00,
2013-04-09 08:39:00,59.0,57.9,29.19,SE,135,1.0,3.0,96,0.00,,---,0.00,0.00,VWS V14.01,2013-04-09 12:39:00,
2013-04-09 08:44:00,59.0,57.6,29.19,South,180,4.0,7.0,95,0.00,,---,0.00,0.00,VWS V14.01,2013-04-09 12:44:00,
2013-04-09 08:49:00,59.0,57.3,29.19,SE,135,5.0,5.0,94,0.00,,---,0.00,0.00,VWS V14.01,2013-04-09 12:49:00,
2013-04-09 08:54:00,59.0,57.3,29.19,SE,135,3.0,4.0,94,0.00,,---,0.00,0.00,VWS V14.01,2013-04-09 12:54:00,
2013-04-09 08:59:00,59.0,57.0,29.19,SSW,202,2.0,4.0,93,0.00,,---,0.00,0.00,VWS V14.01,2013-04-09 12:59:00,
2013-04-09 09:04:00,60.0,58.0,29.19,SSE,157,2.0,4.0,93,0.00,,---,0.00,0.00,VWS V14.01,2013-04-09 13:04:00,
2013-04-09 09:09:00,60.0,57.7,29.18,South,180,0.0,4.0,92,0.00,,---,0.00,0.00,VWS V14.01,2013-04-09 13:09:00,
2013-04-09 09:14:00,60.0,57.7,29.18,South,180,2.0,3.0,92,0.00,,---,0.00,0.00,VWS V14.01,2013-04-09 13:14:00,
2013-04-09 09:19:00,60.0,57.7,29.19,ESE,112,1.0,5.0,92,0.00,,---,0.00,0.00,VWS V14.01,2013-04-09 13:19:00,
2013-04-09 09:24:00,60.0,57.7,29.19,SSE,157,2.0,4.0,92,0.00,,---,0.00,0.00,VWS V14.01,2013-04-09 13:24:00,
2013-04-09 09:29:00,60.0,57.7,29.19,SSE,157,0.0,3.0,92,0.00,,---,0.00,0.00,VWS V14.01,2013-04-09 13:29:00,
2013-04-09 09:34:00,60.0,57.4,29.19,SSE,157,3.0,5.0,91,0.00,,---,0.00,0.00,VWS V14.01,2013-04-09 13:34:00,
2013-04-09 09:39:00,61.0,58.4,29.18,South,180,3.0,3.0,91,0.00,,---,0.00,0.00,VWS V14.01,2013-04-09 13:39:00,
2013-04-09 09:44:00,61.0,57.7,29.18,SSE,157,2.0,5.0,89,0.00,,---,0.00,0.00,VWS V14.01,2013-04-09 13:44:00,
2013-04-09 09:49:00,62.0,58.4,29.16,SE,135,2.0,4.0,88,0.00,,---,0.00,0.00,VWS V14.01,2013-04-09 13:49:00,
2013-04-09 09:54:00,62.0,58.1,29.16,SE,135,1.0,7.0,87,0.00,,---,0.00,0.00,VWS V14.01,2013-04-09 13:54:00,
2013-04-09 09:59:00,63.0,58.4,29.14,ESE,112,4.0,4.0,85,0.00,,---,0.00,0.00,VWS V14.01,2013-04-09 13:59:00,
2013-04-09 10:04:00,64.0,59.1,29.14,South,180,5.0,6.0,84,0.00,,---,0.00,0.00,VWS V14.01,2013-04-09 14:04:00,
2013-04-09 10:09:00,64.0,58.7,29.12,South,180,0.0,3.0,83,0.00,,---,0.00,0.00,VWS V14.01,2013-04-09 14:09:00,
2013-04-09 10:15:00,65.0,59.4,29.12,SE,135,10.0,13.0,82,0.00,,---,0.00,0.00,VWS V14.01,2013-04-09 14:15:00,
2013-04-09 10:20:00,66.0,59.7,29.07,SSE,157,6.0,6.0,80,0.00,,---,0.00,0.00,VWS V14.01,2013-04-09 14:20:00,
2013-04-09 10:25:00,66.0,58.6,29.07,SSW,202,3.0,7.0,77,0.00,,---,0.00,0.00,VWS V14.01,2013-04-09 14:25:00,
2013-04-09 10:30:00,67.0,59.6,29.04,SE,135,5.0,7.0,77,0.00,,---,0.00,0.00,VWS V14.01,2013-04-09 14:30:00,
2013-04-09 10:35:00,67.0,58.8,29.04,SSE,157,8.0,8.0,75,0.00,,---,0.00,0.00,VWS V14.01,2013-04-09 14:35:00,
2013-04-09 10:40:00,68.0,60.2,29.03,South,180,4.0,7.0,76,0.00,,---,0.00,0.00,VWS V14.01,2013-04-09 14:40:00,
2013-04-09 10:45:00,68.0,59.8,29.03,SW,225,5.0,9.0,75,0.00,,---,0.00,0.00,VWS V14.01,2013-04-09 14:45:00,
2013-04-09 10:50:00,69.0,60.4,29.02,SSW,202,6.0,10.0,74,0.00,,---,0.00,0.00,VWS V14.01,2013-04-09 14:50:00,
2013-04-09 10:55:00,69.0,60.0,29.02,SE,135,5.0,6.0,73,0.00,,---,0.00,0.00,VWS V14.01,2013-04-09 14:55:00,
2013-04-09 11:00:00,69.0,60.4,29.02,SSW,202,5.0,8.0,74,0.00,,---,0.00,0.00,VWS V14.01,2013-04-09 15:00:00,
2013-04-09 11:05:00,70.0,61.0,29.02,South,180,5.0,6.0,73,0.00,,---,0.00,0.00,VWS V14.01,2013-04-09 15:05:00,
2013-04-09 11:10:00,71.0,61.1,29.04,South,180,4.0,5.0,71,0.00,,---,0.00,0.00,VWS V14.01,2013-04-09 15:10:00,
2013-04-09 11:15:00,71.0,60.7,29.04,South,180,6.0,11.0,70,0.00,,---,0.00,0.00,VWS V14.01,2013-04-09 15:15:00,
2013-04-09 11:20:00,72.0,62.1,29.06,West,270,11.0,16.0,71,0.00,,---,0.00,0.00,VWS V14.01,2013-04-09 15:20:00,
2013-04-09 11:25:00,72.0,61.7,29.06,South,180,0.0,6.0,70,0.00,,---,0.00,0.00,VWS V14.01,2013-04-09 15:25:00,
2013-04-09 11:30:00,72.0,62.1,29.06,South,180,7.0,9.0,71,0.00,,---,0.00,0.00,VWS V14.01,2013-04-09 15:30:00,
2013-04-09 11:35:00,72.0,61.3,29.06,SSE,157,9.0,10.0,69,0.00,,---,0.00,0.00,VWS V14.01,2013-04-09 15:35:00,
2013-04-09 11:40:00,73.0,61.8,29.05,WSW,247,6.0,9.0,68,0.00,,---,0.00,0.00,VWS V14.01,2013-04-09 15:40:00,
2013-04-09 11:45:00,73.0,62.7,29.05,West,270,7.0,9.0,70,0.00,,---,0.00,0.00,VWS V14.01,2013-04-09 15:45:00,
2013-04-09 11:50:00,73.0,62.2,29.05,SSW,202,4.0,7.0,69,0.00,,---,0.00,0.00,VWS V14.01,2013-04-09 15:50:00,
2013-04-09 11:55:00,74.0,63.6,29.05,SSW,202,4.0,7.0,70,0.00,,---,0.00,0.00,VWS V14.01,2013-04-09 15:55:00,
2013-04-09 12:00:00,74.0,61.9,29.04,SSE,157,6.0,6.0,66,0.00,,---,0.00,0.00,VWS V14.01,2013-04-09 16:00:00,
2013-04-09 12:05:00,74.0,61.9,29.04,South,180,7.0,13.0,66,0.00,,---,0.00,0.00,VWS V14.01,2013-04-09 16:05:00,
2013-04-09 12:11:00,74.0,61.9,29.03,SW,225,6.0,7.0,66,0.00,,---,0.00,0.00,VWS V14.01,2013-04-09 16:11:00,
2013-04-09 12:16:00,75.0,62.5,29.03,SSE,157,9.0,12.0,65,0.00,,---,0.00,0.00,VWS V14.01,2013-04-09 16:16:00,
2013-04-09 12:21:00,74.0,62.4,29.04,WSW,247,4.0,8.0,67,0.00,,---,0.00,0.00,VWS V14.01,2013-04-09 16:21:00,
2013-04-09 12:26:00,75.0,62.0,29.04,SSE,157,5.0,11.0,64,0.00,,---,0.00,0.00,VWS V14.01,2013-04-09 16:26:00,
2013-04-09 12:31:00,76.0,63.0,29.03,SE,135,13.0,15.0,64,0.00,,---,0.00,0.00,VWS V14.01,2013-04-09 16:31:00,
2013-04-09 12:36:00,74.0,61.5,29.03,South,180,9.0,11.0,65,0.00,,---,0.00,0.00,VWS V14.01,2013-04-09 16:36:00,
2013-04-09 12:41:00,74.0,61.9,29.07,SSW,202,8.0,13.0,66,0.00,,---,0.00,0.00,VWS V14.01,2013-04-09 16:41:00,
2013-04-09 12:46:00,74.0,61.9,29.03,SSW,202,8.0,12.0,66,0.00,,---,0.00,0.00,VWS V14.01,2013-04-09 16:46:00,
2013-04-09 12:52:00,75.0,62.9,29.03,SSE,157,7.0,12.0,66,0.00,,---,0.00,0.00,VWS V14.01,2013-04-09 16:52:00,
2013-04-09 12:57:00,75.0,62.0,29.02,South,180,14.0,17.0,64,0.00,,---,0.00,0.00,VWS V14.01,2013-04-09 16:57:00,
2013-04-09 13:02:00,75.0,62.0,29.02,SW,225,8.0,18.0,64,0.00,,---,0.00,0.00,VWS V14.01,2013-04-09 17:02:00,
2013-04-09 13:07:00,76.0,63.0,29.02,SSE,157,7.0,8.0,64,0.00,,---,0.00,0.00,VWS V14.01,2013-04-09 17:07:00,
2013-04-09 13:12:00,75.0,61.1,29.02,SSW,202,7.0,11.0,62,0.00,,---,0.00,0.00,VWS V14.01,2013-04-09 17:12:00,
2013-04-09 13:17:00,75.0,61.6,29.03,SSE,157,4.0,11.0,63,0.00,,---,0.00,0.00,VWS V14.01,2013-04-09 17:17:00,
2013-04-09 13:22:00,76.0,63.0,29.03,SSW,202,5.0,12.0,64,0.00,,---,0.00,0.00,VWS V14.01,2013-04-09 17:22:00,
2013-04-09 13:27:00,76.0,63.0,29.01,South,180,7.0,10.0,64,0.00,,---,0.00,0.00,VWS V14.01,2013-04-09 17:27:00,
2013-04-09 13:32:00,76.0,62.0,29.01,South,180,8.0,19.0,62,0.00,,---,0.00,0.00,VWS V14.01,2013-04-09 17:32:00,
2013-04-09 13:37:00,77.0,63.0,29.02,SSE,157,10.0,16.0,62,0.00,,---,0.00,0.00,VWS V14.01,2013-04-09 17:37:00,
2013-04-09 13:42:00,77.0,62.1,29.02,South,180,10.0,15.0,60,0.00,,---,0.00,0.00,VWS V14.01,2013-04-09 17:42:00,
2013-04-09 13:47:00,76.0,62.0,29.03,South,180,6.0,9.0,62,0.00,,---,0.00,0.00,VWS V14.01,2013-04-09 17:47:00,
2013-04-09 13:52:00,76.0,61.1,29.03,SSE,157,9.0,9.0,60,0.00,,---,0.00,0.00,VWS V14.01,2013-04-09 17:52:00,
2013-04-09 13:57:00,76.0,62.0,29.03,SSW,202,10.0,10.0,62,0.00,,---,0.00,0.00,VWS V14.01,2013-04-09 17:57:00,
2013-04-09 14:02:00,76.0,61.6,29.03,SSW,202,2.0,6.0,61,0.00,,---,0.00,0.00,VWS V14.01,2013-04-09 18:02:00,
2013-04-09 14:07:00,77.0,63.9,28.99,SW,225,3.0,6.0,64,0.00,,---,0.00,0.00,VWS V14.01,2013-04-09 18:07:00,
2013-04-09 14:12:00,77.0,61.1,28.99,South,180,11.0,14.0,58,0.00,,---,0.00,0.00,VWS V14.01,2013-04-09 18:12:00,
2013-04-09 14:17:00,77.0,61.1,29.00,SW,225,11.0,11.0,58,0.00,,---,0.00,0.00,VWS V14.01,2013-04-09 18:17:00,
2013-04-09 14:23:00,77.0,61.6,29.00,SW,225,10.0,14.0,59,0.00,,---,0.00,0.00,VWS V14.01,2013-04-09 18:23:00,
2013-04-09 14:28:00,77.0,61.1,28.99,South,180,6.0,10.0,58,0.00,,---,0.00,0.00,VWS V14.01,2013-04-09 18:28:00,
2013-04-09 14:33:00,77.0,59.6,28.99,SW,225,10.0,11.0,55,0.00,,---,0.00,0.00,VWS V14.01,2013-04-09 18:33:00,
2013-04-09 14:38:00,77.0,59.6,28.99,WNW,292,3.0,17.0,55,0.00,,---,0.00,0.00,VWS V14.01,2013-04-09 18:38:00,
2013-04-09 14:43:00,78.0,60.5,28.99,South,180,4.0,10.0,55,0.00,,---,0.00,0.00,VWS V14.01,2013-04-09 18:43:00,
2013-04-09 14:48:00,78.0,59.5,28.99,South,180,4.0,9.0,53,0.00,,---,0.00,0.00,VWS V14.01,2013-04-09 18:48:00,
2013-04-09 14:53:00,78.0,60.5,28.99,SW,225,3.0,9.0,55,0.00,,---,0.00,0.00,VWS V14.01,2013-04-09 18:53:00,
2013-04-09 14:58:00,78.0,58.4,28.98,SSW,202,11.0,11.0,51,0.00,,---,0.00,0.00,VWS V14.01,2013-04-09 18:58:00,
2013-04-09 15:03:00,78.0,59.5,28.98,West,270,7.0,18.0,53,0.00,,---,0.00,0.00,VWS V14.01,2013-04-09 19:03:00,
2013-04-09 15:08:00,79.0,61.5,28.98,SW,225,11.0,11.0,55,0.00,,---,0.00,0.00,VWS V14.01,2013-04-09 19:08:00,
2013-04-09 15:13:00,78.0,59.0,28.98,WNW,292,1.0,9.0,52,0.00,,---,0.00,0.00,VWS V14.01,2013-04-09 19:13:00,
2013-04-09 15:18:00,79.0,59.3,28.99,SSW,202,8.0,13.0,51,0.00,,---,0.00,0.00,VWS V14.01,2013-04-09 19:18:00,
2013-04-09 15:23:00,79.0,58.8,28.99,SSW,202,7.0,10.0,50,0.00,,---,0.00,0.00,VWS V14.01,2013-04-09 19:23:00,
2013-04-09 15:28:00,78.0,59.0,28.99,South,180,9.0,11.0,52,0.00,,---,0.00,0.00,VWS V14.01,2013-04-09 19:28:00,
2013-04-09 15:34:00,78.0,57.9,28.99,SSW,202,13.0,16.0,50,0.00,,---,0.00,0.00,VWS V14.01,2013-04-09 19:34:00,
2013-04-09 15:39:00,78.0,59.0,29.00,South,180,8.0,17.0,52,0.00,,---,0.00,0.00,VWS V14.01,2013-04-09 19:39:00,
2013-04-09 15:44:00,78.0,59.0,29.00,South,180,10.0,16.0,52,0.00,,---,0.00,0.00,VWS V14.01,2013-04-09 19:44:00,
2013-04-09 15:49:00,78.0,60.0,29.01,SW,225,8.0,12.0,54,0.00,,---,0.00,0.00,VWS V14.01,2013-04-09 19:49:00,
2013-04-09 15:54:00,78.0,59.5,29.01,SSW,202,16.0,19.0,53,0.00,,---,0.00,0.00,VWS V14.01,2013-04-09 19:54:00,
2013-04-09 15:59:00,78.0,58.4,29.03,SW,225,1.0,10.0,51,0.00,,---,0.00,0.00,VWS V14.01,2013-04-09 19:59:00,
2013-04-09 16:04:00,79.0,59.3,29.03,South,180,5.0,7.0,51,0.00,,---,0.00,0.00,VWS V14.01,2013-04-09 20:04:00,
2013-04-09 16:10:00,79.0,59.9,29.02,WSW,247,0.0,7.0,52,0.00,,---,0.00,0.00,VWS V14.01,2013-04-09 20:10:00,
2013-04-09 16:15:00,78.0,58.4,29.02,SSW,202,6.0,16.0,51,0.00,,---,0.00,0.00,VWS V14.01,2013-04-09 20:15:00,
2013-04-09 16:20:00,78.0,59.0,29.03,SW,225,10.0,10.0,52,0.00,,---,0.00,0.00,VWS V14.01,2013-04-09 20:20:00,
2013-04-09 16:25:00,77.0,58.0,29.03,SSE,157,4.0,9.0,52,0.00,,---,0.00,0.00,VWS V14.01,2013-04-09 20:25:00,
2013-04-09 16:30:00,78.0,59.0,29.03,SSE,157,0.0,8.0,52,0.00,,---,0.00,0.00,VWS V14.01,2013-04-09 20:30:00,
2013-04-09 16:35:00,79.0,58.8,29.03,SW,225,7.0,9.0,50,0.00,,---,0.00,0.00,VWS V14.01,2013-04-09 20:35:00,
2013-04-09 16:40:00,78.0,57.9,29.02,SE,135,8.0,12.0,50,0.00,,---,0.00,0.00,VWS V14.01,2013-04-09 20:40:00,
2013-04-09 16:45:00,78.0,58.4,29.02,West,270,3.0,10.0,51,0.00,,---,0.00,0.00,VWS V14.01,2013-04-09 20:45:00,
2013-04-09 16:50:00,78.0,57.9,29.03,South,180,4.0,4.0,50,0.00,,---,0.00,0.00,VWS V14.01,2013-04-09 20:50:00,
2013-04-09 16:55:00,78.0,58.4,29.03,SSE,157,2.0,5.0,51,0.00,,---,0.00,0.00,VWS V14.01,2013-04-09 20:55:00,
2013-04-09 17:00:00,79.0,59.3,29.02,South,180,5.0,7.0,51,0.00,,---,0.00,0.00,VWS V14.01,2013-04-09 21:00:00,
2013-04-09 17:06:00,78.0,58.4,29.02,SSW,202,6.0,7.0,51,0.00,,---,0.00,0.00,VWS V14.01,2013-04-09 21:06:00,
2013-04-09 17:11:00,77.0,58.6,29.05,SSW,202,7.0,7.0,53,0.00,,---,0.00,0.00,VWS V14.01,2013-04-09 21:11:00,
2013-04-09 17:16:00,76.0,58.2,29.05,East,90,3.0,5.0,54,0.00,,---,0.00,0.00,VWS V14.01,2013-04-09 21:16:00,
2013-04-09 17:21:00,76.0,58.7,29.05,SSW,202,7.0,10.0,55,0.00,,---,0.00,0.00,VWS V14.01,2013-04-09 21:21:00,
2013-04-09 17:26:00,76.0,60.2,29.05,ESE,112,7.0,10.0,58,0.00,,---,0.00,0.00,VWS V14.01,2013-04-09 21:26:00,
2013-04-09 17:31:00,76.0,60.2,29.06,SW,225,6.0,9.0,58,0.00,,---,0.00,0.00,VWS V14.01,2013-04-09 21:31:00,
2013-04-09 17:37:00,76.0,59.7,29.06,SSW,202,12.0,12.0,57,0.00,,---,0.00,0.00,VWS V14.01,2013-04-09 21:37:00,
2013-04-09 17:42:00,76.0,60.2,29.06,SW,225,3.0,5.0,58,0.00,,---,0.00,0.00,VWS V14.01,2013-04-09 21:42:00,
2013-04-09 17:47:00,77.0,61.1,29.04,West,270,5.0,9.0,58,0.00,,---,0.00,0.00,VWS V14.01,2013-04-09 21:47:00,
2013-04-09 17:52:00,77.0,61.1,29.04,SW,225,1.0,8.0,58,0.00,,---,0.00,0.00,VWS V14.01,2013-04-09 21:52:00,
2013-04-09 17:57:00,76.0,59.7,29.06,SSW,202,7.0,11.0,57,0.00,,---,0.00,0.00,VWS V14.01,2013-04-09 21:57:00,
2013-04-09 18:02:00,76.0,60.7,29.06,SSW,202,9.0,12.0,59,0.00,,---,0.00,0.00,VWS V14.01,2013-04-09 22:02:00,
2013-04-09 18:07:00,76.0,60.2,29.06,NE,45,0.0,13.0,58,0.00,,---,0.00,0.00,VWS V14.01,2013-04-09 22:07:00,
2013-04-09 18:12:00,76.0,61.6,29.06,WNW,292,4.0,9.0,61,0.00,,---,0.00,0.00,VWS V14.01,2013-04-09 22:12:00,
2013-04-09 18:17:00,76.0,61.1,29.07,SSW,202,5.0,8.0,60,0.00,,---,0.00,0.00,VWS V14.01,2013-04-09 22:17:00,
2013-04-09 18:22:00,75.0,60.2,29.07,SSE,157,6.0,10.0,60,0.00,,---,0.00,0.00,VWS V14.01,2013-04-09 22:22:00,
2013-04-09 18:27:00,75.0,60.7,29.07,WNW,292,6.0,9.0,61,0.00,,---,0.00,0.00,VWS V14.01,2013-04-09 22:27:00,
2013-04-09 18:32:00,75.0,60.7,29.07,SSW,202,6.0,7.0,61,0.00,,---,0.00,0.00,VWS V14.01,2013-04-09 22:32:00,
2013-04-09 18:37:00,75.0,60.7,29.07,SSW,202,6.0,9.0,61,0.00,,---,0.00,0.00,VWS V14.01,2013-04-09 22:37:00,
2013-04-09 18:42:00,75.0,60.7,29.07,South,180,2.0,8.0,61,0.00,,---,0.00,0.00,VWS V14.01,2013-04-09 22:42:00,
2013-04-09 18:47:00,75.0,60.7,29.07,WSW,247,3.0,6.0,61,0.00,,---,0.00,0.00,VWS V14.01,2013-04-09 22:47:00,
2013-04-09 18:52:00,75.0,61.1,29.07,South,180,1.0,3.0,62,0.00,,---,0.00,0.00,VWS V14.01,2013-04-09 22:52:00,
2013-04-09 18:58:00,74.0,60.2,29.08,SW,225,8.0,8.0,62,0.00,,---,0.00,0.00,VWS V14.01,2013-04-09 22:58:00,
2013-04-09 19:03:00,74.0,60.6,29.08,South,180,6.0,6.0,63,0.00,,---,0.00,0.00,VWS V14.01,2013-04-09 23:03:00,
2013-04-09 19:08:00,74.0,60.6,29.09,SSW,202,2.0,7.0,63,0.00,,---,0.00,0.00,VWS V14.01,2013-04-09 23:08:00,
2013-04-09 19:13:00,74.0,61.5,29.09,SW,225,0.0,4.0,65,0.00,,---,0.00,0.00,VWS V14.01,2013-04-09 23:13:00,
2013-04-09 19:18:00,74.0,61.1,29.09,SSW,202,4.0,8.0,64,0.00,,---,0.00,0.00,VWS V14.01,2013-04-09 23:18:00,
2013-04-09 19:23:00,74.0,61.5,29.09,WSW,247,4.0,4.0,65,0.00,,---,0.00,0.00,VWS V14.01,2013-04-09 23:23:00,
2013-04-09 19:28:00,74.0,61.1,29.09,SW,225,5.0,10.0,64,0.00,,---,0.00,0.00,VWS V14.01,2013-04-09 23:28:00,
2013-04-09 19:33:00,74.0,61.5,29.09,SSW,202,5.0,8.0,65,0.00,,---,0.00,0.00,VWS V14.01,2013-04-09 23:33:00,
2013-04-09 19:38:00,73.0,60.5,29.09,SE,135,3.0,4.0,65,0.00,,---,0.00,0.00,VWS V14.01,2013-04-09 23:38:00,
2013-04-09 19:43:00,73.0,60.5,29.09,SSW,202,0.0,1.0,65,0.00,,---,0.00,0.00,VWS V14.01,2013-04-09 23:43:00,
2013-04-09 19:48:00,73.0,61.0,29.10,SSW,202,0.0,0.0,66,0.00,,---,0.00,0.00,VWS V14.01,2013-04-09 23:48:00,
2013-04-09 19:53:00,73.0,61.4,29.10,SSE,157,1.0,1.0,67,0.00,,---,0.00,0.00,VWS V14.01,2013-04-09 23:53:00,
2013-04-09 19:58:00,72.0,60.9,29.09,WSW,247,0.0,3.0,68,0.00,,---,0.00,0.00,VWS V14.01,2013-04-09 23:58:00,
2013-04-09 20:03:00,72.0,60.9,29.09,SSW,202,0.0,0.0,68,0.00,,---,0.00,0.00,VWS V14.01,2013-04-10 00:03:00,
2013-04-09 20:08:00,72.0,60.9,29.10,SSW,202,0.0,0.0,68,0.00,,---,0.00,0.00,VWS V14.01,2013-04-10 00:08:00,
2013-04-09 20:13:00,71.0,60.3,29.10,SSW,202,0.0,0.0,69,0.00,,---,0.00,0.00,VWS V14.01,2013-04-10 00:13:00,
2013-04-09 20:18:00,71.0,60.7,29.11,SSW,202,0.0,0.0,70,0.00,,---,0.00,0.00,VWS V14.01,2013-04-10 00:18:00,
2013-04-09 20:23:00,71.0,61.1,29.11,SSW,202,0.0,0.0,71,0.00,,---,0.00,0.00,VWS V14.01,2013-04-10 00:23:00,
2013-04-09 20:28:00,70.0,60.2,29.11,SW,225,0.0,1.0,71,0.00,,---,0.00,0.00,VWS V14.01,2013-04-10 00:28:00,
2013-04-09 20:33:00,70.0,60.2,29.11,WSW,247,0.0,0.0,71,0.00,,---,0.00,0.00,VWS V14.01,2013-04-10 00:33:00,
2013-04-09 20:38:00,70.0,61.0,29.11,ESE,112,0.0,0.0,73,0.00,,---,0.00,0.00,VWS V14.01,2013-04-10 00:38:00,
2013-04-09 20:43:00,70.0,61.0,29.11,WSW,247,0.0,2.0,73,0.00,,---,0.00,0.00,VWS V14.01,2013-04-10 00:43:00,
2013-04-09 20:48:00,70.0,61.0,29.11,WSW,247,0.0,0.0,73,0.00,,---,0.00,0.00,VWS V14.01,2013-04-10 00:48:00,
2013-04-09 20:53:00,70.0,61.0,29.11,SW,225,0.0,0.0,73,0.00,,---,0.00,0.00,VWS V14.01,2013-04-10 00:53:00,
2013-04-09 20:58:00,69.0,60.4,29.10,South,180,0.0,0.0,74,0.00,,---,0.00,0.00,VWS V14.01,2013-04-10 00:58:00,
2013-04-09 21:03:00,69.0,60.4,29.10,South,180,0.0,0.0,74,0.00,,---,0.00,0.00,VWS V14.01,2013-04-10 01:03:00,
2013-04-09 21:08:00,69.0,60.8,29.11,SW,225,0.0,0.0,75,0.00,,---,0.00,0.00,VWS V14.01,2013-04-10 01:08:00,
2013-04-09 21:13:00,69.0,60.8,29.11,SW,225,0.0,0.0,75,0.00,,---,0.00,0.00,VWS V14.01,2013-04-10 01:13:00,
2013-04-09 21:18:00,69.0,60.8,29.11,SSW,202,0.0,0.0,75,0.00,,---,0.00,0.00,VWS V14.01,2013-04-10 01:18:00,
2013-04-09 21:23:00,69.0,60.8,29.11,SSW,202,0.0,0.0,75,0.00,,---,0.00,0.00,VWS V14.01,2013-04-10 01:23:00,
2013-04-09 21:28:00,68.0,60.2,29.12,SSE,157,0.0,0.0,76,0.00,,---,0.00,0.00,VWS V14.01,2013-04-10 01:28:00,
2013-04-09 21:33:00,68.0,60.2,29.12,SSE,157,0.0,0.0,76,0.00,,---,0.00,0.00,VWS V14.01,2013-04-10 01:33:00,
2013-04-09 21:38:00,68.0,60.9,29.12,SSE,157,0.0,0.0,78,0.00,,---,0.00,0.00,VWS V14.01,2013-04-10 01:38:00,
2013-04-09 21:43:00,68.0,60.9,29.12,SSW,202,0.0,0.0,78,0.00,,---,0.00,0.00,VWS V14.01,2013-04-10 01:43:00,
2013-04-09 21:48:00,68.0,60.9,29.12,SSW,202,0.0,0.0,78,0.00,,---,0.00,0.00,VWS V14.01,2013-04-10 01:48:00,
2013-04-09 21:53:00,68.0,60.9,29.12,SSW,202,0.0,0.0,78,0.00,,---,0.00,0.00,VWS V14.01,2013-04-10 01:53:00,
2013-04-09 21:58:00,68.0,60.9,29.13,ESE,112,0.0,0.0,78,0.00,,---,0.00,0.00,VWS V14.01,2013-04-10 01:58:00,
2013-04-09 22:03:00,68.0,60.9,29.13,South,180,0.0,0.0,78,0.00,,---,0.00,0.00,VWS V14.01,2013-04-10 02:03:00,
2013-04-09 22:08:00,68.0,60.9,29.12,South,180,0.0,0.0,78,0.00,,---,0.00,0.00,VWS V14.01,2013-04-10 02:08:00,
2013-04-09 22:13:00,69.0,61.5,29.12,SSW,202,1.0,3.0,77,0.00,,---,0.00,0.00,VWS V14.01,2013-04-10 02:13:00,
2013-04-09 22:18:00,69.0,61.1,29.12,South,180,0.0,0.0,76,0.00,,---,0.00,0.00,VWS V14.01,2013-04-10 02:18:00,
2013-04-09 22:23:00,69.0,61.1,29.12,South,180,0.0,0.0,76,0.00,,---,0.00,0.00,VWS V14.01,2013-04-10 02:23:00,
2013-04-09 22:29:00,69.0,61.1,29.13,South,180,0.0,0.0,76,0.00,,---,0.00,0.00,VWS V14.01,2013-04-10 02:29:00,
2013-04-09 22:33:00,69.0,61.1,29.13,South,180,0.0,0.0,76,0.00,,---,0.00,0.00,VWS V14.01,2013-04-10 02:33:00,
2013-04-09 22:39:00,69.0,61.5,29.13,South,180,0.0,0.0,77,0.00,,---,0.00,0.00,VWS V14.01,2013-04-10 02:39:00,
2013-04-09 22:44:00,69.0,61.9,29.13,South,180,2.0,3.0,78,0.00,,---,0.00,0.00,VWS V14.01,2013-04-10 02:44:00,
2013-04-09 22:49:00,69.0,61.5,29.12,SW,225,0.0,0.0,77,0.00,,---,0.00,0.00,VWS V14.01,2013-04-10 02:49:00,
2013-04-09 22:54:00,69.0,61.5,29.12,South,180,0.0,2.0,77,0.00,,---,0.00,0.00,VWS V14.01,2013-04-10 02:54:00,
2013-04-09 22:59:00,70.0,62.5,29.11,South,180,0.0,2.0,77,0.00,,---,0.00,0.00,VWS V14.01,2013-04-10 02:59:00,
2013-04-09 23:00:00,70.0,62.1,29.10,South,180,3.0,5.0,76,0.00,,---,0.00,0.00,VWS V14.01,2013-04-10 03:00:00,
2013-04-09 23:01:00,70.0,62.1,29.10,SW,225,7.0,7.0,76,0.00,,---,0.00,0.00,VWS V14.01,2013-04-10 03:01:00,
2013-04-09 23:02:00,70.0,61.7,29.10,SSW,202,7.0,7.0,75,0.00,,---,0.00,0.00,VWS V14.01,2013-04-10 03:02:00,
2013-04-09 23:03:00,71.0,62.7,29.10,SSW,202,0.0,8.0,75,0.00,,---,0.00,0.00,VWS V14.01,2013-04-10 03:03:00,
2013-04-09 23:04:00,70.0,62.1,29.11,SW,225,0.0,2.0,76,0.00,,---,0.00,0.00,VWS V14.01,2013-04-10 03:04:00,
2013-04-09 23:05:00,71.0,62.7,29.10,SW,225,1.0,5.0,75,0.00,,---,0.00,0.00,VWS V14.01,2013-04-10 03:05:00,
2013-04-09 23:06:00,71.0,62.7,29.10,SSW,202,4.0,6.0,75,0.00,,---,0.00,0.00,VWS V14.01,2013-04-10 03:06:00,
2013-04-09 23:07:00,71.0,62.7,29.10,SW,225,4.0,7.0,75,0.00,,---,0.00,0.00,VWS V14.01,2013-04-10 03:07:00,
2013-04-09 23:08:00,71.0,62.7,29.10,South,180,3.0,5.0,75,0.00,,---,0.00,0.00,VWS V14.01,2013-04-10 03:08:00,
2013-04-09 23:09:00,70.0,62.1,29.11,SSE,157,0.0,0.0,76,0.00,,---,0.00,0.00,VWS V14.01,2013-04-10 03:09:00,
2013-04-09 23:10:00,71.0,62.7,29.10,South,180,0.0,1.0,75,0.00,,---,0.00,0.00,VWS V14.01,2013-04-10 03:10:00,
2013-04-09 23:11:00,71.0,62.7,29.10,SW,225,2.0,3.0,75,0.00,,---,0.00,0.00,VWS V14.01,2013-04-10 03:11:00,
2013-04-09 23:12:00,71.0,62.7,29.10,SSW,202,1.0,6.0,75,0.00,,---,0.00,0.00,VWS V14.01,2013-04-10 03:12:00,
2013-04-09 23:13:00,71.0,62.7,29.10,SW,225,2.0,2.0,75,0.00,,---,0.00,0.00,VWS V14.01,2013-04-10 03:13:00,
2013-04-09 23:14:00,70.0,62.5,29.11,SSW,202,2.0,2.0,77,0.00,,---,0.00,0.00,VWS V14.01,2013-04-10 03:14:00,
2013-04-09 23:16:00,71.0,62.7,29.10,South,180,3.0,3.0,75,0.00,,---,0.00,0.00,VWS V14.01,2013-04-10 03:16:00,
2013-04-09 23:17:00,71.0,63.1,29.10,West,270,0.0,7.0,76,0.00,,---,0.00,0.00,VWS V14.01,2013-04-10 03:17:00,
2013-04-09 23:19:00,70.0,62.5,29.11,SSE,157,1.0,2.0,77,0.00,,---,0.00,0.00,VWS V14.01,2013-04-10 03:19:00,
2013-04-09 23:24:00,70.0,62.5,29.11,SW,225,0.0,3.0,77,0.00,,---,0.00,0.00,VWS V14.01,2013-04-10 03:24:00,
2013-04-09 23:29:00,70.0,62.5,29.10,SSW,202,4.0,4.0,77,0.00,,---,0.00,0.00,VWS V14.01,2013-04-10 03:29:00,
2013-04-09 23:34:00,70.0,62.1,29.10,SSE,157,0.0,1.0,76,0.00,,---,0.00,0.00,VWS V14.01,2013-04-10 03:34:00,
2013-04-09 23:39:00,70.0,62.5,29.10,SSW,202,5.0,7.0,77,0.00,,---,0.00,0.00,VWS V14.01,2013-04-10 03:39:00,
2013-04-09 23:44:00,70.0,62.1,29.10,South,180,2.0,7.0,76,0.00,,---,0.00,0.00,VWS V14.01,2013-04-10 03:44:00,
2013-04-09 23:49:00,71.0,62.7,29.10,SSW,202,3.0,5.0,75,0.00,,---,0.00,0.00,VWS V14.01,2013-04-10 03:49:00,
2013-04-09 23:54:00,70.0,62.1,29.10,SW,225,0.0,4.0,76,0.00,,---,0.00,0.00,VWS V14.01,2013-04-10 03:54:00,
2013-04-09 23:59:00,70.0,62.1,29.10,SSW,202,5.0,5.0,76,0.00,,---,0.00,0.00,VWS V14.01,2013-04-10 03:59:00,